Portada
METAR-TAF:

METAR-TAF

Aeropuertos :

Valence, Francia

latitud: 44-54-58N, longitud: 4-58-06E, altitud: 160 m

Observación

El informe se hizo hace 2 horas y 38 minutos, a las 18:00 UTC
Viento 18 kt del sur-suroeste
Temperatura 18°C
Humedad 68%
Presión 1018 hPa
Visibilidad 10 km o más
Cielo cubierto a una altura de 4800 ft

METAR: LFLU 201800Z AUTO 20018KT 9999 OVC048 18/12 Q1018

Hora: 22:38 (20:38 UTC)


TAF: falta

Observaciones y pronósticos meteorológicos de más de 4000 aeropuertos (mensajes METAR y TAF).

Los puntos amarillos y rojos representan las estaciones disponibles.

Ponga el ratón en el punto deseado para ver el nombre de la estación.

Haga clic para ver las observaciones y los pronósticos meteorológicos.

Para cambiar el mapa : haga clic en los botones verdes con una cruz de color negro para hacer un zoom, en el botón verde con un guión para alejar o en las flechas verdes para mapas adyacentes.


METAR-TAF: